[[{"header":{"parameterUnit":"m.s-1","parameterCategory":2,"la1":30.2991,"la2":30.254,"lo1":-89.0895,"lo2":-89.0444,"dy":0.0017,"dx":0.0017,"nx":28,"ny":28,"refTime":"2023-04-25T21:00:00:Z","depth":"0","parameterNumber":2,"parameterNumberName":"U-component_of_CURRENTS"},"data":[0,0,0,0,0,0,0,0,0,0,0,0,0,0,0,0,0,0,0,0,0,0,0,0,0,0,0,0,0,0,0,0,0,0,0,0,0,0,0,0,0,0,0,0,0,0,0,0,0,0,0,0,0,0,0,0,0,0,-0.4997,-0.4997,0,-0.4876,-0.4873,-0.4871,-0.4734,-0.4733,-0.4732,-0.4731,-0.4459,-0.4454,-0.4448,0,0,0,0,0,0,0,0,0,0,0,0,0,-0.4914,-0.4916,-0.4997,-0.4997,-0.4996,-0.4876,-0.4873,-0.4871,-0.4734,-0.4733,-0.4731,-0.473,-0.4461,-0.4454,-0.4447,0,0,0,0,0,0,0,0,0,0,0,0,0,-0.4879,-0.4917,-0.4997,-0.492,-0.4912,-0.4876,-0.4873,-0.487,-0.4735,-0.4733,-0.4731,-0.4729,-0.4464,-0.4455,-0.4446,-0.4426,0,0,-0.4418,-0.4414,0,0,0,0,0,0,0,0,-0.4881,-0.4881,-0.4932,-0.4925,-0.4917,-0.4826,-0.4745,-0.4717,-0.4735,-0.4793,-0.4731,-0.4728,-0.4575,-0.4557,-0.4528,-0.4414,-0.4402,-0.4417,-0.4412,-0.4408,-0.4405,0,0,0,0,0,0,0,-0.4884,-0.4885,-0.494,-0.4931,-0.4922,-0.4824,-0.4818,-0.4738,-0.4686,-0.4788,-0.478,-0.4781,-0.4568,-0.4537,-0.452,-0.4398,-0.4418,-0.4409,-0.4404,-0.44,-0.4278,-0.428,0,0,0,0,0,0,-0.493,-0.4889,-0.4944,-0.4937,-0.4904,-0.4828,-0.4821,-0.485,-0.469,-0.4668,-0.4782,-0.4775,-0.4553,-0.4531,-0.451,-0.4502,-0.4408,-0.4399,-0.4394,-0.4276,-0.4279,-0.4281,0,0,0,0,0,0,-0.4929,-0.4938,-0.4949,-0.4914,-0.491,-0.4834,-0.4866,-0.4848,-0.4816,-0.4689,-0.4662,-0.4769,-0.4551,-0.4523,-0.4457,-0.4489,-0.4395,-0.4387,-0.4273,-0.4277,-0.428,-0.447,0,0,0,0,0,0,-0.4928,-0.4939,-0.4962,-0.492,-0.4915,-0.4961,-0.4868,-0.4848,-0.4824,-0.4812,-0.4669,-0.4642,-0.4547,-0.4472,-0.4448,-0.4475,-0.438,-0.427,-0.4275,-0.4279,-0.4461,-0.4479,-0.4495,0,0,0,0,0,-0.4926,-0.4984,-0.4964,-0.497,-0.4955,-0.4964,-0.4953,-0.4883,-0.4826,-0.4839,-0.4735,-0.4646,-0.4482,-0.4466,-0.4438,-0.4463,-0.4268,-0.4274,-0.4278,-0.4453,-0.4476,-0.4495,0,0,0,0,0,0,-0.4944,-0.4975,-0.4952,-0.5011,-0.5002,-0.4945,-0.4944,-0.4898,-0.4826,-0.4797,-0.4665,-0.4633,-0.4592,-0.4507,-0.4494,-0.4444,-0.4364,-0.4364,-0.4507,-0.4527,-0.4544,-0.4448,-0.4372,0,0,0,0,0,-0.4969,-0.5017,-0.5021,-0.5055,-0.5066,-0.5004,-0.4991,-0.4952,-0.4891,-0.4856,-0.4764,-0.4664,-0.4594,-0.4544,-0.4472,-0.4435,-0.4256,-0.4437,-0.4455,-0.447,-0.4376,-0.4222,-0.4215,-0.4297,-0.4297,-0.4297,0,0,-0.4977,-0.5,-0.5021,-0.5061,-0.5036,-0.5028,-0.4989,-0.4991,-0.4952,-0.4837,-0.4763,-0.4721,-0.4601,-0.4568,-0.4542,-0.4496,-0.4351,-0.4476,-0.449,-0.4384,-0.4226,-0.4217,-0.4209,-0.4301,-0.43,-0.43,0,0,-0.4991,-0.505,-0.5074,-0.5092,-0.5094,-0.5061,-0.5074,-0.5042,-0.5007,-0.4965,-0.4874,-0.4847,-0.4735,-0.4663,-0.4606,-0.4669,-0.4457,-0.4674,-0.4664,-0.4522,-0.4511,-0.45,-0.4247,-0.4211,-0.4674,-0.4674,-0.4674,0,-0.4981,-0.4987,-0.5077,-0.5097,-0.5056,-0.508,-0.5032,-0.5045,-0.4987,-0.4905,-0.4962,-0.4785,-0.4764,-0.4638,-0.4701,-0.4702,-0.4532,-0.4605,-0.4539,-0.4524,-0.4509,-0.4251,-0.4209,-0.4684,-0.4683,-0.4682,-0.4681,0,-0.498,-0.4983,-0.5004,-0.5012,-0.5028,-0.4995,-0.5027,-0.5015,-0.4986,-0.4934,-0.4853,-0.4863,-0.4701,-0.4788,-0.4769,-0.4665,-0.4547,-0.4591,-0.4479,-0.4511,-0.4239,-0.4191,-0.4698,-0.4694,-0.4691,-0.4689,0,0,-0.4824,-0.4964,-0.4933,-0.4861,-0.4941,-0.4889,-0.4921,-0.4826,-0.4701,-0.4791,-0.4587,-0.4688,-0.4659,-0.4594,-0.4616,-0.4584,-0.443,-0.4555,-0.4544,-0.4282,-0.399,-0.3842,-0.3774,-0.4461,-0.4455,-0.445,-0.3836,0,-0.4696,-0.4677,-0.4789,-0.4656,-0.4593,-0.4664,-0.4638,-0.4605,-0.4583,-0.4439,-0.4502,-0.4382,-0.4595,-0.4528,-0.4533,-0.4405,-0.4313,-0.4581,-0.4008,-0.3986,-0.3838,-0.372,-0.3693,-0.3138,-0.3788,-0.378,-0.3774,0,-0.4524,-0.4515,-0.4437,-0.4342,-0.4316,-0.4301,-0.4125,-0.4103,-0.4043,-0.4015,-0.3983,-0.401,-0.395,-0.4171,-0.3952,-0.4097,-0.4027,-0.4005,-0.3981,-0.3714,-0.375,-0.3214,-0.3025,-0.3039,-0.3699,-0.3705,-0.3711,0,-0.4183,-0.4164,-0.4055,-0.4052,-0.4068,-0.4007,-0.3965,-0.3942,-0.3841,-0.3726,-0.3616,-0.3575,-0.3477,-0.3455,-0.3491,-0.3661,-0.3202,-0.3404,-0.3183,-0.3167,-0.2952,-0.2928,-0.2678,-0.321,-0.3211,-0.3213,-0.3215,0,-0.3905,-0.3768,-0.3892,-0.3825,-0.3609,-0.3718,-0.3504,-0.3473,-0.3397,-0.3227,-0.3349,-0.3214,-0.3313,-0.3148,-0.3219,-0.2965,-0.2943,-0.3056,-0.2981,-0.302,-0.3011,-0.2861,-0.2948,-0.319,-0.3195,-0.32,-0.3204,0,-0.3558,-0.3661,-0.3503,-0.3503,-0.3479,-0.3321,-0.3266,-0.3109,-0.3086,-0.2866,-0.2826,-0.2788,-0.2598,-0.2627,-0.2478,-0.2526,-0.2318,-0.2316,-0.2301,-0.2239,-0.2125,-0.2225,-0.1731,-0.1685,-0.1908,-0.19,-0.1894,0,-0.3382,-0.3299,-0.3256,-0.3161,-0.3175,-0.3026,-0.2933,-0.2934,-0.2842,-0.2645,-0.2508,-0.2291,-0.2174,-0.1799,-0.1837,-0.1689,-0.1913,-0.1577,-0.1973,-0.1983,-0.2039,-0.2155,-0.2167,-0.1734,-0.1726,-0.1721,-0.1716,0,-0.2988,-0.3028,-0.2914,-0.2796,-0.2695,-0.2583,-0.2502,-0.2404,-0.2393,-0.2216,-0.1989,-0.1868,-0.1615,-0.1469,-0.1293,-0.13,-0.156,-0.145,-0.1475,-0.1833,-0.1914,-0.1881,-0.2215,-0.1663,-0.1669,-0.1673,-0.1675,-0.1678,-0.2653,-0.2515,-0.2441,-0.2308,-0.222,-0.2154,-0.2024,-0.197,-0.1769,-0.1526,-0.1548,-0.1263,-0.1289,-0.1075,-0.101,-0.0951,-0.1131,-0.1087,-0.1168,-0.1251,-0.1335,-0.1486,-0.0896,-0.0896,-0.0897,-0.0898,-0.0898,0,-0.2173,-0.2103,-0.1949,-0.1817,-0.1707,-0.181,-0.171,-0.1595,-0.1343,-0.1146,-0.0934,-0.0784,-0.0715,-0.076,-0.0777,-0.0745,-0.0852,-0.0759,-0.0991,-0.0997,-0.1093,-0.1231,-0.0669,-0.0669,-0.0669,-0.0669,-0.0669,-0.0669,-0.1887,-0.1637,-0.1632,-0.1368,-0.1334,-0.1182,-0.1139,-0.0973,-0.0836,-0.0471,-0.0276,-0.0226,-0.0444,-0.0674,-0.0722,-0.0701,-0.0786,-0.0722,-0.0746,-0.0966,-0.101,-0.1051,-0.1201,-0.0642,-0.0643,-0.0679,-0.0679,-0.068]},{"header":{"parameterUnit":"m.s-1","parameterCategory":2,"la1":30.2991,"la2":30.254,"lo1":-89.0895,"lo2":-89.0444,"dy":0.0017,"dx":0.0017,"nx":28,"ny":28,"refTime":"2023-04-25T21:00:00:Z","depth":"0","parameterNumber":3,"parameterNumberName":"V-component_of_CURRENTS"},"data":[0,0,0,0,0,0,0,0,0,0,0,0,0,0,0,0,0,0,0,0,0,0,0,0,0,0,0,0,0,0,0,0,0,0,0,0,0,0,0,0,0,0,0,0,0,0,0,0,0,0,0,0,0,0,0,0,0,0,0.0816,0.0818,0,0.1009,0.1011,0.1013,0.1107,0.1107,0.1107,0.1106,0.1281,0.1286,0.1291,0,0,0,0,0,0,0,0,0,0,0,0,0,0.0607,0.061,0.0815,0.0818,0.082,0.1009,0.1011,0.1014,0.1107,0.1107,0.1107,0.1106,0.128,0.1285,0.1291,0,0,0,0,0,0,0,0,0,0,0,0,0,0.0738,0.061,0.0815,0.0889,0.0898,0.1008,0.1011,0.1015,0.1107,0.1107,0.1106,0.1106,0.1278,0.1285,0.1292,0.1338,0,0,0.1314,0.1317,0,0,0,0,0,0,0,0,0.0731,0.0746,0.0876,0.0884,0.0894,0.1034,0.1002,0.1122,0.1107,0.1027,0.1106,0.1106,0.1197,0.1211,0.1248,0.1346,0.1353,0.1314,0.1318,0.1321,0.1323,0,0,0,0,0,0,0,0.0721,0.0738,0.0892,0.0878,0.089,0.094,0.0958,0.1026,0.111,0.1034,0.1042,0.1063,0.1202,0.1241,0.1252,0.1356,0.1314,0.132,0.1325,0.1327,0.1514,0.1514,0,0,0,0,0,0,0.0694,0.073,0.0886,0.0898,0.081,0.0944,0.0964,0.0989,0.111,0.1129,0.1063,0.1067,0.1229,0.1244,0.1259,0.1282,0.1321,0.1328,0.1332,0.1513,0.1514,0.1515,0,0,0,0,0,0,0.0688,0.0706,0.0878,0.0818,0.0843,0.0947,0.0975,0.0993,0.1024,0.1132,0.115,0.1074,0.1229,0.1249,0.132,0.1291,0.1331,0.1338,0.1512,0.1513,0.1514,0.1352,0,0,0,0,0,0,0.0682,0.0703,0.0698,0.0816,0.0846,0.0911,0.0976,0.0997,0.1038,0.1044,0.1147,0.1164,0.123,0.1309,0.1327,0.1301,0.1343,0.1511,0.1513,0.1514,0.1357,0.1348,0.134,0,0,0,0,0,0.0674,0.065,0.0696,0.0715,0.084,0.0909,0.0928,0.1003,0.1037,0.1033,0.1125,0.1161,0.133,0.1315,0.1336,0.1311,0.1511,0.1512,0.1514,0.1361,0.135,0.134,0,0,0,0,0,0,0.0537,0.0662,0.0714,0.0725,0.0803,0.0924,0.0919,0.099,0.1062,0.1061,0.1174,0.1197,0.1247,0.1315,0.1296,0.1376,0.1425,0.143,0.1301,0.1292,0.1283,0.1264,0.1349,0,0,0,0,0,0.0512,0.053,0.066,0.0659,0.0693,0.081,0.0844,0.0901,0.0988,0.1019,0.1104,0.1195,0.1274,0.1308,0.1384,0.1427,0.1504,0.1429,0.142,0.1412,0.1416,0.1544,0.1547,0.152,0.152,0.152,0,0,0.0456,0.0524,0.0533,0.0632,0.0694,0.0713,0.0828,0.086,0.0875,0.1026,0.1059,0.1165,0.1283,0.1331,0.1358,0.1378,0.145,0.1414,0.1406,0.1414,0.1546,0.1549,0.1551,0.1521,0.1521,0.1521,0,0,0.0334,0.0415,0.0388,0.045,0.0538,0.0617,0.0621,0.0744,0.0794,0.0856,0.0973,0.1073,0.1174,0.1269,0.1327,0.1324,0.1403,0.1339,0.1274,0.1397,0.14,0.1403,0.1445,0.1454,0.1331,0.1331,0.133,0,0.0245,0.027,0.0383,0.0376,0.043,0.0562,0.0561,0.0614,0.0744,0.0826,0.083,0.1075,0.1145,0.1268,0.1251,0.1299,0.1365,0.1289,0.1383,0.1388,0.1395,0.1438,0.145,0.1323,0.1324,0.1325,0.1325,0,0.0121,0.015,0.0132,0.0187,0.0246,0.0263,0.0382,0.045,0.0538,0.064,0.0786,0.0914,0.1085,0.1098,0.1158,0.1255,0.1281,0.1353,0.1394,0.1387,0.1433,0.1448,0.1312,0.1315,0.1317,0.1319,0,0,-0.0109,0.0025,0.0014,0.009,0.0172,0.0243,0.0259,0.0397,0.0509,0.0577,0.0722,0.0821,0.0955,0.1031,0.1144,0.1216,0.1269,0.1279,0.1289,0.1292,0.149,0.1394,0.1402,0.1364,0.1367,0.137,0.148,0,-0.0239,-0.0215,-0.0139,-0.0099,-0.0038,0.0115,0.0171,0.0309,0.0448,0.0607,0.0737,0.0893,0.0907,0.1023,0.1086,0.1256,0.1313,0.123,0.1522,0.1529,0.1425,0.1419,0.1371,0.1457,0.1495,0.1498,0.15,0,-0.0402,-0.0317,-0.0281,-0.0066,-0.003,0.0003,0.0254,0.0318,0.0534,0.0648,0.08,0.0932,0.1047,0.1073,0.1278,0.1228,0.1336,0.1428,0.1438,0.1423,0.1464,0.1489,0.1485,0.1586,0.1524,0.1522,0.152,0,-0.0502,-0.0416,-0.034,-0.0289,-0.007,0.0012,0.0126,0.0351,0.0485,0.0695,0.0807,0.0981,0.1084,0.1229,0.1343,0.1351,0.1549,0.1612,0.162,0.1612,0.1667,0.1658,0.1779,0.1772,0.1772,0.1771,0.1771,0,-0.0623,-0.0558,-0.0356,-0.0288,-0.0113,0.0005,0.0208,0.0363,0.0556,0.0732,0.0832,0.0964,0.1132,0.1254,0.1364,0.1487,0.1572,0.1599,0.1647,0.16,0.1585,0.1754,0.1804,0.1775,0.1775,0.1774,0.1773,0,-0.0697,-0.0622,-0.0451,-0.0212,-0.0134,0.0014,0.0264,0.0422,0.0554,0.0771,0.082,0.0967,0.1089,0.1216,0.1451,0.1509,0.1698,0.1691,0.1557,0.1585,0.1667,0.1708,0.1854,0.1937,0.1737,0.1735,0.1734,0,-0.0721,-0.0645,-0.0346,-0.0209,-0.0088,0.0119,0.0276,0.0438,0.0583,0.078,0.0868,0.0986,0.1098,0.1284,0.1389,0.1533,0.1661,0.1609,0.1621,0.1645,0.1732,0.1746,0.1809,0.1621,0.1619,0.1617,0.1616,0,-0.0645,-0.0531,-0.0326,-0.0071,0.0104,0.0293,0.0486,0.0563,0.0738,0.0901,0.1063,0.1132,0.1184,0.1274,0.1351,0.1441,0.1642,0.1576,0.1702,0.171,0.1647,0.1757,0.1517,0.1601,0.1602,0.1603,0.1604,0.1605,-0.0518,-0.0335,-0.0073,0.0167,0.0309,0.0437,0.0551,0.0709,0.0902,0.1126,0.1204,0.1363,0.1314,0.137,0.1437,0.1501,0.1544,0.1605,0.1667,0.1689,0.1723,0.137,0.1443,0.1443,0.1444,0.1444,0.1445,0,-0.0297,-0.0088,0.0148,0.0401,0.0498,0.0534,0.0689,0.0766,0.0937,0.1234,0.1438,0.1617,0.1573,0.1539,0.1524,0.1624,0.1687,0.1696,0.1769,0.1849,0.164,0.1587,0.1574,0.1573,0.1573,0.1573,0.1573,0.1573,-0.0159,0.0156,0.0283,0.0524,0.0608,0.0659,0.0694,0.0845,0.1028,0.1414,0.168,0.1867,0.1788,0.1736,0.178,0.1805,0.1995,0.1893,0.2058,0.1952,0.195,0.1949,0.1914,0.1969,0.1969,0.2252,0.2255,0.2257]}],[{"header":{"parameterUnit":"m.s-1","parameterCategory":2,"la1":30.2991,"la2":30.254,"lo1":-89.0895,"lo2":-89.0444,"dy":0.0017,"dx":0.0017,"nx":28,"ny":28,"refTime":"2023-04-25T21:00:00:Z","depth":"2","parameterNumber":2,"parameterNumberName":"U-component_of_CURRENTS"},"data":[0,0,0,0,0,0,0,0,0,0,0,0,0,0,0,0,0,0,0,0,0,0,0,0,0,0,0,0,0,0,0,0,0,0,0,0,0,0,0,0,0,0,0,0,0,0,0,0,0,0,0,0,0,0,0,0,0,0,-0.3239,-0.3239,0,-0.3213,-0.3212,-0.3212,-0.3153,-0.3152,-0.3151,-0.3151,-0.2931,-0.2926,-0.2921,0,0,0,0,0,0,0,0,0,0,0,0,0,-0.3211,-0.3212,-0.3239,-0.3239,-0.324,-0.3213,-0.3212,-0.3211,-0.3153,-0.3152,-0.3151,-0.315,-0.2933,-0.2927,-0.2921,0,0,0,0,0,0,0,0,0,0,0,0,0,-0.3203,-0.3212,-0.3239,-0.3211,-0.3209,-0.3213,-0.3212,-0.3211,-0.3153,-0.3152,-0.3151,-0.315,-0.2935,-0.2928,-0.292,-0.2894,0,0,-0.2896,-0.2893,0,0,0,0,0,0,0,0,-0.3204,-0.3204,-0.3215,-0.3213,-0.3211,-0.319,-0.3123,-0.3097,-0.3154,-0.3169,-0.3151,-0.315,-0.3004,-0.2991,-0.2983,-0.2883,-0.2874,-0.2895,-0.2891,-0.2887,-0.2885,0,0,0,0,0,0,0,-0.3205,-0.3204,-0.3223,-0.3215,-0.3213,-0.3191,-0.3188,-0.3118,-0.3085,-0.3167,-0.3164,-0.317,-0.3001,-0.2991,-0.2977,-0.2871,-0.2896,-0.2889,-0.2884,-0.2881,-0.2826,-0.2829,0,0,0,0,0,0,-0.3221,-0.3205,-0.3224,-0.3223,-0.321,-0.3193,-0.319,-0.3193,-0.309,-0.3076,-0.3171,-0.3168,-0.3005,-0.2986,-0.2969,-0.3057,-0.2887,-0.288,-0.2876,-0.2823,-0.2826,-0.283,0,0,0,0,0,0,-0.3221,-0.3223,-0.3225,-0.3218,-0.3217,-0.3195,-0.3199,-0.3193,-0.32,-0.3096,-0.3077,-0.3186,-0.3003,-0.298,-0.2951,-0.3043,-0.2877,-0.287,-0.2819,-0.2824,-0.2828,-0.3152,0,0,0,0,0,0,-0.322,-0.3223,-0.3245,-0.3219,-0.3219,-0.3274,-0.3201,-0.3194,-0.3207,-0.3202,-0.3102,-0.308,-0.3001,-0.2964,-0.2943,-0.3029,-0.2864,-0.2815,-0.2821,-0.2827,-0.3137,-0.3167,-0.3193,0,0,0,0,0,-0.3219,-0.3237,-0.3246,-0.3249,-0.3244,-0.3277,-0.3277,-0.3251,-0.3209,-0.3245,-0.3175,-0.3084,-0.2987,-0.296,-0.2935,-0.3021,-0.2812,-0.2819,-0.2826,-0.3125,-0.3161,-0.3192,0,0,0,0,0,0,-0.322,-0.3233,-0.3241,-0.326,-0.3297,-0.327,-0.329,-0.3272,-0.3246,-0.3223,-0.3116,-0.3092,-0.3106,-0.3008,-0.2981,-0.3021,-0.2887,-0.289,-0.3123,-0.3156,-0.3183,-0.3109,-0.2857,0,0,0,0,0,-0.324,-0.3261,-0.3286,-0.3305,-0.333,-0.3318,-0.3328,-0.3316,-0.3286,-0.3274,-0.3215,-0.3144,-0.3115,-0.3091,-0.3037,-0.3047,-0.2875,-0.3086,-0.3114,-0.3138,-0.3061,-0.2925,-0.2933,-0.2853,-0.2853,-0.2853,0,0,-0.3234,-0.3254,-0.3259,-0.331,-0.3323,-0.3361,-0.3321,-0.3348,-0.3378,-0.3249,-0.3267,-0.3234,-0.3138,-0.3173,-0.3169,-0.3103,-0.3083,-0.3147,-0.317,-0.3075,-0.2933,-0.294,-0.2946,-0.2858,-0.2857,-0.2857,0,0,-0.3195,-0.3273,-0.3254,-0.3338,-0.3389,-0.3401,-0.3422,-0.3434,-0.3453,-0.3482,-0.3409,-0.3418,-0.3367,-0.3335,-0.3305,-0.3435,-0.3236,-0.3448,-0.3529,-0.3406,-0.341,-0.341,-0.3252,-0.3236,-0.3464,-0.3465,-0.3465,0,-0.3247,-0.3202,-0.3261,-0.331,-0.3369,-0.3426,-0.3442,-0.35,-0.3504,-0.3483,-0.3521,-0.3452,-0.3435,-0.3418,-0.3516,-0.3498,-0.3365,-0.343,-0.344,-0.3437,-0.3432,-0.3268,-0.3246,-0.3481,-0.3479,-0.3478,-0.3476,0,-0.3163,-0.3209,-0.3234,-0.3313,-0.3373,-0.3444,-0.3528,-0.3565,-0.3602,-0.362,-0.3642,-0.3657,-0.3566,-0.366,-0.3647,-0.3634,-0.3533,-0.35,-0.3357,-0.346,-0.3281,-0.3252,-0.3505,-0.3499,-0.3494,-0.349,0,0,-0.3115,-0.3179,-0.3195,-0.3204,-0.3408,-0.3401,-0.351,-0.3549,-0.351,-0.3651,-0.359,-0.3731,-0.3706,-0.3666,-0.3684,-0.367,-0.3635,-0.3604,-0.359,-0.3445,-0.3315,-0.3178,-0.3131,-0.361,-0.3606,-0.3603,-0.3221,0,-0.3072,-0.3104,-0.315,-0.3186,-0.3216,-0.335,-0.3407,-0.3459,-0.3523,-0.3504,-0.3602,-0.3575,-0.3725,-0.3688,-0.3718,-0.3607,-0.3562,-0.3736,-0.3229,-0.3211,-0.3078,-0.3095,-0.2968,-0.261,-0.3191,-0.3186,-0.3183,0,-0.2974,-0.2998,-0.3031,-0.3059,-0.3075,-0.3124,-0.3142,-0.3201,-0.3262,-0.3297,-0.3343,-0.337,-0.3402,-0.351,-0.3383,-0.348,-0.3403,-0.3366,-0.3348,-0.3053,-0.3018,-0.2588,-0.2532,-0.3131,-0.3135,-0.3139,-0.3142,0,-0.283,-0.2899,-0.2896,-0.297,-0.3038,-0.3025,-0.3057,-0.3122,-0.3109,-0.3145,-0.3104,-0.3142,-0.3101,-0.3071,-0.3087,-0.3182,-0.2899,-0.2977,-0.2769,-0.2756,-0.2448,-0.2414,-0.2821,-0.2821,-0.2822,-0.2823,-0.2824,0,-0.2797,-0.2777,-0.2824,-0.2849,-0.276,-0.2874,-0.2789,-0.2833,-0.2863,-0.2818,-0.297,-0.2911,-0.2992,-0.2895,-0.2929,-0.2734,-0.2736,-0.2713,-0.2632,-0.2566,-0.2549,-0.2831,-0.2837,-0.2809,-0.2812,-0.2815,-0.2817,0,-0.2628,-0.2737,-0.267,-0.2696,-0.2705,-0.2629,-0.264,-0.2577,-0.2648,-0.2588,-0.2588,-0.2638,-0.2517,-0.2554,-0.2425,-0.2447,-0.2323,-0.225,-0.2164,-0.2082,-0.2296,-0.2324,-0.1917,-0.1909,-0.1902,-0.1896,-0.1891,0,-0.2532,-0.2513,-0.2491,-0.2465,-0.2488,-0.2427,-0.2407,-0.2474,-0.2451,-0.243,-0.2388,-0.2265,-0.2189,-0.1948,-0.1915,-0.1785,-0.2017,-0.1612,-0.1794,-0.2231,-0.2194,-0.2234,-0.2271,-0.1524,-0.1516,-0.151,-0.1505,0,-0.2288,-0.2309,-0.224,-0.2207,-0.2192,-0.2106,-0.2116,-0.2058,-0.2137,-0.2109,-0.2036,-0.1951,-0.1748,-0.1551,-0.1392,-0.1364,-0.1639,-0.1476,-0.1854,-0.1809,-0.1838,-0.1812,-0.1864,-0.145,-0.1456,-0.146,-0.1463,-0.1465,-0.2029,-0.1949,-0.1923,-0.1862,-0.1864,-0.1804,-0.1695,-0.1731,-0.1654,-0.1616,-0.1691,-0.1555,-0.1488,-0.1148,-0.1053,-0.0999,-0.1142,-0.1183,-0.121,-0.1242,-0.1301,-0.1321,-0.0842,-0.0844,-0.0846,-0.0847,-0.0849,0,-0.1645,-0.1661,-0.16,-0.153,-0.1449,-0.1552,-0.1498,-0.1404,-0.1304,-0.132,-0.1283,-0.1106,-0.0924,-0.0876,-0.0673,-0.0624,-0.0722,-0.0643,-0.0805,-0.0856,-0.0902,-0.0956,-0.0398,-0.0397,-0.0396,-0.0395,0,0,-0.146,-0.131,-0.1331,-0.1141,-0.1131,-0.1001,-0.0944,-0.0888,-0.0875,-0.079,-0.0761,-0.0864,-0.0825,-0.0625,-0.0558,-0.0433,-0.0658,-0.0413,-0.0768,-0.1007,-0.1053,-0.119,-0.1324,0,0,0,0,0]},{"header":{"parameterUnit":"m.s-1","parameterCategory":2,"la1":30.2991,"la2":30.254,"lo1":-89.0895,"lo2":-89.0444,"dy":0.0017,"dx":0.0017,"nx":28,"ny":28,"refTime":"2023-04-25T21:00:00:Z","depth":"2","parameterNumber":3,"parameterNumberName":"V-component_of_CURRENTS"},"data":[0,0,0,0,0,0,0,0,0,0,0,0,0,0,0,0,0,0,0,0,0,0,0,0,0,0,0,0,0,0,0,0,0,0,0,0,0,0,0,0,0,0,0,0,0,0,0,0,0,0,0,0,0,0,0,0,0,0,-0.0351,-0.0347,0,-0.0035,-0.0031,-0.0028,0.0032,0.003,0.0028,0.0026,0.0144,0.0149,0.0154,0,0,0,0,0,0,0,0,0,0,0,0,0,-0.0656,-0.0653,-0.0351,-0.0347,-0.0343,-0.0035,-0.0031,-0.0027,0.0032,0.003,0.0027,0.0025,0.0142,0.0149,0.0155,0,0,0,0,0,0,0,0,0,0,0,0,0,-0.0455,-0.0652,-0.0352,-0.0273,-0.0262,-0.0036,-0.0031,-0.0026,0.0033,0.003,0.0026,0.0023,0.014,0.0148,0.0156,0.0268,0,0,0.0179,0.0183,0,0,0,0,0,0,0,0,-0.0467,-0.0444,-0.0289,-0.0278,-0.0266,-0.0041,-0.0095,0.0064,0.0034,-0.0083,0.0026,0.0022,0.0069,0.0083,0.0146,0.0274,0.0279,0.018,0.0185,0.0188,0.019,0,0,0,0,0,0,0,-0.0481,-0.0456,-0.023,-0.0284,-0.027,-0.0168,-0.0146,-0.0063,0.0,-0.0073,-0.0067,-0.0025,0.0073,0.0139,0.0149,0.0281,0.018,0.0187,0.0191,0.0194,0.0507,0.0511,0,0,0,0,0,0,-0.052,-0.047,-0.024,-0.022,-0.0372,-0.0161,-0.0136,-0.0113,0.0004,0.0022,-0.0022,-0.0023,0.0127,0.014,0.0153,0.0301,0.0188,0.0195,0.02,0.0504,0.0508,0.0512,0,0,0,0,0,0,-0.0529,-0.0504,-0.0253,-0.0334,-0.0294,-0.0153,-0.0127,-0.0105,-0.0053,0.0046,0.0058,0.0004,0.0125,0.0142,0.0238,0.0305,0.0199,0.0206,0.0499,0.0505,0.051,0.0591,0,0,0,0,0,0,-0.0539,-0.0509,-0.0498,-0.0337,-0.0291,-0.0118,-0.0122,-0.0096,-0.0019,-0.0017,0.0074,0.0083,0.0124,0.0227,0.0246,0.0313,0.0212,0.0495,0.0502,0.0508,0.0584,0.0599,0.0611,0,0,0,0,0,-0.0551,-0.0539,-0.05,-0.0471,-0.0285,-0.0115,-0.0081,0.0006,-0.0015,0.0033,0.0091,0.0079,0.0283,0.0237,0.0258,0.0329,0.0491,0.05,0.0508,0.0578,0.0596,0.0611,0,0,0,0,0,0,-0.0645,-0.0525,-0.0481,-0.0427,-0.0276,-0.0104,-0.0051,0.0004,0.0096,0.0076,0.0134,0.0152,0.0255,0.0288,0.0235,0.044,0.0383,0.0396,0.0429,0.0446,0.046,0.0408,0.0218,0,0,0,0,0,-0.0661,-0.0637,-0.0467,-0.0414,-0.0352,-0.0203,-0.0127,-0.0059,0.0047,0.0083,0.0153,0.0226,0.0319,0.037,0.0446,0.057,0.0543,0.0628,0.0642,0.0653,0.0628,0.0696,0.0712,0.0539,0.0539,0.0539,0,0,-0.0689,-0.0607,-0.0597,-0.0433,-0.0324,-0.0213,-0.0168,-0.0051,0.0043,0.0081,0.0199,0.0268,0.0357,0.0493,0.0543,0.0524,0.0682,0.0664,0.0673,0.064,0.0706,0.0722,0.0737,0.0545,0.0544,0.0543,0,0,-0.0728,-0.0649,-0.0646,-0.0514,-0.0344,-0.0226,-0.02,-0.0022,0.0052,0.0199,0.0241,0.0355,0.0495,0.0597,0.0657,0.0796,0.0741,0.0813,0.0862,0.0931,0.0944,0.0956,0.0899,0.0905,0.0837,0.0837,0.0837,0,-0.0736,-0.0717,-0.0602,-0.0524,-0.0431,-0.0246,-0.0183,-0.0033,0.0156,0.0218,0.0229,0.0468,0.0553,0.0722,0.0782,0.0827,0.0797,0.0791,0.0945,0.0956,0.0966,0.0906,0.0912,0.0842,0.0841,0.0841,0.084,0,-0.0756,-0.0716,-0.0683,-0.0542,-0.0424,-0.0318,-0.011,0.0008,0.0112,0.0255,0.0429,0.0582,0.0704,0.0789,0.0834,0.0976,0.0901,0.0938,0.089,0.0988,0.0918,0.0923,0.0849,0.0847,0.0845,0.0844,0,0,-0.0812,-0.0725,-0.0705,-0.0665,-0.0429,-0.0325,-0.0168,0.0035,0.0109,0.0348,0.0432,0.0701,0.0769,0.084,0.0939,0.1041,0.1109,0.1019,0.102,0.0935,0.115,0.1062,0.1057,0.1165,0.1167,0.1169,0.1054,0,-0.0839,-0.077,-0.0716,-0.0613,-0.0546,-0.036,-0.0236,-0.0028,0.0142,0.0286,0.0523,0.0654,0.0802,0.0841,0.0986,0.106,0.1129,0.1128,0.1089,0.1085,0.0977,0.1065,0.1047,0.0941,0.1058,0.1058,0.1059,0,-0.0864,-0.0813,-0.0765,-0.0675,-0.0635,-0.0547,-0.0352,-0.0208,0.0057,0.0157,0.0368,0.0523,0.0747,0.0822,0.1046,0.1025,0.1081,0.1151,0.1149,0.1035,0.1008,0.0876,0.0944,0.1065,0.1064,0.1064,0.1063,0,-0.0929,-0.0849,-0.0831,-0.0765,-0.0614,-0.0587,-0.0483,-0.0247,-0.0155,0.0077,0.0124,0.042,0.0501,0.0709,0.0909,0.0957,0.1064,0.1145,0.1113,0.1101,0.106,0.1042,0.126,0.126,0.1261,0.1261,0.1261,0,-0.0952,-0.0931,-0.0869,-0.0823,-0.0801,-0.0671,-0.0623,-0.0475,-0.0327,-0.0204,0.0051,0.0164,0.0475,0.0615,0.0819,0.0953,0.1,0.11,0.1093,0.1082,0.1069,0.1168,0.1159,0.1256,0.1257,0.1258,0.1259,0,-0.1015,-0.0969,-0.0947,-0.0859,-0.0829,-0.0799,-0.0726,-0.0679,-0.0537,-0.0398,-0.0336,-0.0079,0.0128,0.038,0.0625,0.0769,0.0945,0.0963,0.0862,0.0848,0.0942,0.0939,0.0926,0.0923,0.092,0.0917,0.0915,0,-0.1044,-0.1028,-0.0978,-0.0973,-0.0946,-0.0909,-0.0878,-0.0765,-0.0715,-0.0488,-0.0432,-0.025,-0.0034,0.0212,0.0476,0.0709,0.0811,0.0754,0.0905,0.0927,0.0921,0.0922,0.0923,0.0853,0.085,0.0848,0.0847,0,-0.1086,-0.1078,-0.1072,-0.1052,-0.1047,-0.1042,-0.0993,-0.1005,-0.0831,-0.0733,-0.0525,-0.0349,-0.0082,0.0192,0.0381,0.0549,0.0738,0.0717,0.0798,0.0942,0.0851,0.0846,0.0852,0.0829,0.0831,0.0832,0.0833,0.0834,-0.1125,-0.1157,-0.1148,-0.113,-0.1131,-0.1134,-0.1124,-0.1096,-0.1033,-0.0821,-0.0663,-0.0387,-0.0122,0.0195,0.0402,0.057,0.0614,0.0702,0.0712,0.0724,0.0738,0.0649,0.0583,0.0583,0.0584,0.0584,0.0584,0,-0.1143,-0.1176,-0.1198,-0.119,-0.1191,-0.1172,-0.1151,-0.1109,-0.1035,-0.0859,-0.0673,-0.037,-0.0126,0.0183,0.0452,0.059,0.0644,0.0604,0.0695,0.0708,0.0721,0.0742,0.0584,0.0585,0.0586,0.0586,0,0,-0.1151,-0.118,-0.1196,-0.1207,-0.1206,-0.1177,-0.1159,-0.1098,-0.0973,-0.0797,-0.0612,-0.0454,-0.0066,0.011,0.0311,0.0486,0.0553,0.0475,0.0455,0.055,0.0562,0.0747,0.0788,0,0,0,0,0]}],[{"header":{"parameterUnit":"m.s-1","parameterCategory":2,"la1":30.2991,"la2":30.254,"lo1":-89.0895,"lo2":-89.0444,"dy":0.0017,"dx":0.0017,"nx":28,"ny":28,"refTime":"2023-04-25T21:00:00:Z","depth":"4","parameterNumber":2,"parameterNumberName":"U-component_of_CURRENTS"},"data":[0,0,0,0,0,0,0,0,0,0,0,0,0,0,0,0,0,0,0,0,0,0,0,0,0,0,0,0,0,0,0,0,0,0,0,0,0,0,0,0,0,0,0,0,0,0,0,0,0,0,0,0,0,0,0,0,0,0,-0.1001,-0.1003,0,-0.112,-0.1121,-0.1123,-0.1174,-0.1174,-0.1174,-0.1173,-0.1193,-0.1194,-0.1194,0,0,0,0,0,0,0,0,0,0,0,0,0,-0.0801,-0.0805,-0.1001,-0.1003,-0.1004,-0.112,-0.1122,-0.1123,-0.1174,-0.1174,-0.1174,-0.1173,-0.1193,-0.1194,-0.1195,0,0,0,0,0,0,0,0,0,0,0,0,0,-0.0902,-0.0806,-0.1001,-0.1043,-0.1047,-0.1119,-0.1122,-0.1124,-0.1174,-0.1174,-0.1174,-0.1173,-0.1192,-0.1193,-0.1195,-0.1211,0,0,-0.1198,-0.1199,0,0,0,0,0,0,0,0,-0.0896,-0.0909,-0.1035,-0.104,-0.1045,-0.1131,-0.1058,-0.1148,-0.1175,-0.1127,-0.1173,-0.1173,-0.1162,-0.1166,-0.1193,-0.1212,-0.1213,-0.1198,-0.1199,-0.12,-0.12,0,0,0,0,0,0,0,-0.0889,-0.0905,-0.1049,-0.1037,-0.1043,-0.1049,-0.1063,-0.1076,-0.1145,-0.1132,-0.1135,-0.1147,-0.1165,-0.1191,-0.1193,-0.1213,-0.1198,-0.1199,-0.12,-0.1201,-0.1297,-0.1298,0,0,0,0,0,0,-0.0875,-0.0899,-0.1046,-0.1053,-0.0967,-0.1053,-0.1069,-0.1105,-0.1147,-0.1154,-0.1147,-0.1149,-0.119,-0.1192,-0.1194,-0.1253,-0.12,-0.1201,-0.1201,-0.1295,-0.1297,-0.1299,0,0,0,0,0,0,-0.087,-0.0888,-0.1041,-0.0975,-0.0995,-0.1057,-0.1097,-0.1107,-0.1159,-0.116,-0.1165,-0.119,-0.1189,-0.1192,-0.1226,-0.1252,-0.1201,-0.1202,-0.1293,-0.1296,-0.1298,-0.1346,0,0,0,0,0,0,-0.0864,-0.0886,-0.0912,-0.0976,-0.0998,-0.1094,-0.1098,-0.111,-0.1164,-0.1169,-0.1198,-0.1198,-0.1189,-0.1224,-0.1227,-0.1253,-0.1203,-0.129,-0.1294,-0.1297,-0.1342,-0.135,-0.1357,0,0,0,0,0,-0.0857,-0.0889,-0.0913,-0.0931,-0.1032,-0.1095,-0.1109,-0.115,-0.1167,-0.1195,-0.1216,-0.1198,-0.1248,-0.1227,-0.123,-0.1256,-0.1289,-0.1293,-0.1297,-0.1339,-0.1348,-0.1356,0,0,0,0,0,0,-0.0827,-0.0899,-0.0927,-0.0984,-0.1041,-0.1104,-0.113,-0.1169,-0.1213,-0.1214,-0.1222,-0.1224,-0.1268,-0.1259,-0.1236,-0.1296,-0.1266,-0.1271,-0.1297,-0.1306,-0.1313,-0.1282,-0.1204,0,0,0,0,0,-0.083,-0.0872,-0.0942,-0.0992,-0.1017,-0.1083,-0.1117,-0.1149,-0.1193,-0.1215,-0.1237,-0.1257,-0.1286,-0.1293,-0.1313,-0.1341,-0.1333,-0.1362,-0.1369,-0.1375,-0.1354,-0.1386,-0.1393,-0.1313,-0.1313,-0.1313,0,0,-0.0832,-0.0879,-0.0903,-0.0987,-0.1032,-0.1082,-0.1103,-0.1159,-0.1193,-0.1205,-0.1256,-0.1289,-0.1304,-0.1341,-0.1359,-0.1335,-0.1398,-0.138,-0.1385,-0.1361,-0.1391,-0.1398,-0.1405,-0.1315,-0.1315,-0.1315,0,0,-0.0855,-0.0899,-0.0942,-0.0983,-0.1051,-0.109,-0.1113,-0.1187,-0.1209,-0.1275,-0.1288,-0.1329,-0.1385,-0.1385,-0.1397,-0.1456,-0.1446,-0.148,-0.1479,-0.1511,-0.1517,-0.1522,-0.1534,-0.1539,-0.1472,-0.1472,-0.1472,0,-0.086,-0.0935,-0.0964,-0.101,-0.1047,-0.1098,-0.1152,-0.1178,-0.1254,-0.1264,-0.1294,-0.139,-0.14,-0.1432,-0.1453,-0.1468,-0.1485,-0.1443,-0.1518,-0.1523,-0.1528,-0.1538,-0.1544,-0.1475,-0.1474,-0.1474,-0.1474,0,-0.092,-0.0975,-0.1,-0.1077,-0.1107,-0.1167,-0.1197,-0.1224,-0.1273,-0.1307,-0.137,-0.1411,-0.1459,-0.1484,-0.1487,-0.1526,-0.1529,-0.1534,-0.149,-0.1538,-0.1547,-0.1552,-0.1479,-0.1478,-0.1477,-0.1476,0,0,-0.0993,-0.1035,-0.1063,-0.1074,-0.1153,-0.1176,-0.1208,-0.1256,-0.1271,-0.1346,-0.1396,-0.1451,-0.148,-0.1494,-0.1516,-0.1537,-0.1589,-0.1549,-0.155,-0.1548,-0.1659,-0.1494,-0.1484,-0.1622,-0.1623,-0.1624,-0.1656,0,-0.1064,-0.1114,-0.1149,-0.1207,-0.1221,-0.1249,-0.128,-0.13,-0.1332,-0.1377,-0.1413,-0.1477,-0.1481,-0.1528,-0.1549,-0.1589,-0.1604,-0.1579,-0.1621,-0.1621,-0.1459,-0.1483,-0.1627,-0.1659,-0.1661,-0.1661,-0.1662,0,-0.1156,-0.116,-0.1202,-0.1224,-0.1245,-0.1284,-0.1306,-0.1339,-0.1369,-0.1404,-0.145,-0.1493,-0.1536,-0.1554,-0.1609,-0.1604,-0.1625,-0.1648,-0.165,-0.1472,-0.1463,-0.16,-0.167,-0.167,-0.1669,-0.1669,-0.1668,0,-0.115,-0.1223,-0.1237,-0.1248,-0.1272,-0.1288,-0.1323,-0.134,-0.1363,-0.141,-0.1459,-0.1512,-0.1571,-0.1608,-0.1629,-0.1644,-0.1688,-0.1714,-0.1578,-0.1568,-0.1686,-0.168,-0.1744,-0.1744,-0.1743,-0.1743,-0.1743,0,-0.1194,-0.1219,-0.1224,-0.1214,-0.1229,-0.1265,-0.1292,-0.1316,-0.1391,-0.1424,-0.147,-0.1509,-0.1594,-0.1624,-0.1642,-0.1598,-0.1693,-0.156,-0.1557,-0.1709,-0.1705,-0.169,-0.1684,-0.1745,-0.1744,-0.1744,-0.1744,0,-0.1149,-0.1182,-0.1174,-0.1195,-0.1204,-0.1194,-0.1267,-0.1294,-0.1367,-0.1418,-0.1451,-0.1532,-0.1538,-0.1574,-0.1628,-0.1593,-0.1582,-0.1543,-0.1679,-0.1687,-0.1447,-0.1443,-0.141,-0.1405,-0.14,-0.1396,-0.1392,0,-0.1108,-0.1096,-0.111,-0.1106,-0.1113,-0.1122,-0.1154,-0.125,-0.1285,-0.1404,-0.1436,-0.1479,-0.15,-0.1431,-0.1478,-0.146,-0.1445,-0.1449,-0.1456,-0.1409,-0.1411,-0.1414,-0.1417,-0.1385,-0.1383,-0.1382,-0.1381,0,-0.0996,-0.1026,-0.1007,-0.0988,-0.1008,-0.1029,-0.1082,-0.1106,-0.1232,-0.1335,-0.1361,-0.136,-0.1347,-0.1337,-0.1305,-0.1306,-0.1455,-0.1399,-0.141,-0.1417,-0.1377,-0.1385,-0.1393,-0.1364,-0.1366,-0.1368,-0.1369,0,-0.0917,-0.0885,-0.0879,-0.086,-0.0886,-0.0909,-0.0954,-0.1011,-0.1065,-0.1229,-0.1227,-0.1262,-0.1335,-0.1255,-0.1238,-0.1194,-0.1194,-0.1196,-0.1218,-0.1237,-0.1157,-0.1081,-0.0957,0,0,0,0,0,-0.0816,-0.0785,-0.0761,-0.0733,-0.0767,-0.0784,-0.0899,-0.0972,-0.11,-0.1091,-0.1161,-0.1136,-0.1103,-0.1117,-0.1032,-0.1139,-0.1184,-0.1038,-0.1195,-0.1271,-0.129,-0.1207,0,0,0,0,0,0,-0.0757,-0.0722,-0.0711,-0.0626,-0.0603,-0.0633,-0.0705,-0.0815,-0.0811,-0.0954,-0.0924,-0.1047,-0.1003,-0.11,-0.0991,-0.0997,-0.1073,-0.1073,-0.107,-0.126,-0.1277,-0.1293,-0.1215,0,0,0,0,0]},{"header":{"parameterUnit":"m.s-1","parameterCategory":2,"la1":30.2991,"la2":30.254,"lo1":-89.0895,"lo2":-89.0444,"dy":0.0017,"dx":0.0017,"nx":28,"ny":28,"refTime":"2023-04-25T21:00:00:Z","depth":"4","parameterNumber":3,"parameterNumberName":"V-component_of_CURRENTS"},"data":[0,0,0,0,0,0,0,0,0,0,0,0,0,0,0,0,0,0,0,0,0,0,0,0,0,0,0,0,0,0,0,0,0,0,0,0,0,0,0,0,0,0,0,0,0,0,0,0,0,0,0,0,0,0,0,0,0,0,-0.0766,-0.0765,0,-0.0767,-0.0768,-0.0769,-0.0799,-0.0799,-0.0799,-0.0798,-0.0796,-0.0796,-0.0796,0,0,0,0,0,0,0,0,0,0,0,0,0,-0.0798,-0.0798,-0.0766,-0.0765,-0.0764,-0.0767,-0.0768,-0.0769,-0.0799,-0.0799,-0.0798,-0.0798,-0.0796,-0.0796,-0.0796,0,0,0,0,0,0,0,0,0,0,0,0,0,-0.08,-0.0798,-0.0766,-0.0772,-0.0772,-0.0766,-0.0768,-0.0769,-0.0799,-0.0799,-0.0798,-0.0798,-0.0796,-0.0796,-0.0796,-0.0802,0,0,-0.0796,-0.0796,0,0,0,0,0,0,0,0,-0.08,-0.08,-0.0772,-0.0771,-0.0771,-0.0773,-0.0777,-0.0776,-0.0799,-0.08,-0.0798,-0.0798,-0.0781,-0.0783,-0.0798,-0.0802,-0.0802,-0.0796,-0.0796,-0.0796,-0.0796,0,0,0,0,0,0,0,-0.08,-0.08,-0.0777,-0.0771,-0.077,-0.0776,-0.0777,-0.0778,-0.08,-0.0799,-0.0799,-0.0783,-0.0782,-0.0798,-0.0798,-0.0801,-0.0796,-0.0796,-0.0796,-0.0797,-0.0825,-0.0826,0,0,0,0,0,0,-0.0779,-0.08,-0.0777,-0.0776,-0.0773,-0.0775,-0.0777,-0.0781,-0.08,-0.0799,-0.0783,-0.0784,-0.0798,-0.0798,-0.0798,-0.0827,-0.0796,-0.0797,-0.0797,-0.0824,-0.0825,-0.0826,0,0,0,0,0,0,-0.078,-0.0777,-0.0776,-0.0778,-0.0777,-0.0773,-0.0779,-0.0781,-0.0808,-0.0785,-0.0787,-0.0807,-0.0798,-0.0798,-0.0805,-0.0826,-0.0797,-0.0797,-0.0824,-0.0825,-0.0826,-0.0871,0,0,0,0,0,0,-0.0781,-0.0779,-0.0792,-0.0778,-0.0776,-0.0783,-0.0778,-0.0781,-0.0792,-0.0794,-0.0806,-0.0805,-0.0798,-0.0805,-0.0805,-0.0826,-0.0797,-0.0823,-0.0824,-0.0825,-0.0868,-0.0873,-0.0877,0,0,0,0,0,-0.0783,-0.0789,-0.0794,-0.0791,-0.079,-0.0782,-0.0785,-0.0787,-0.0793,-0.0812,-0.0813,-0.0805,-0.0813,-0.0806,-0.0806,-0.0827,-0.0822,-0.0824,-0.0825,-0.0866,-0.0872,-0.0877,0,0,0,0,0,0,-0.0815,-0.0791,-0.0796,-0.0798,-0.0796,-0.0784,-0.079,-0.0797,-0.0817,-0.082,-0.0813,-0.0812,-0.0827,-0.0819,-0.0811,-0.0838,-0.0817,-0.0819,-0.0849,-0.0854,-0.0858,-0.0845,-0.0797,0,0,0,0,0,-0.0825,-0.0825,-0.0807,-0.0814,-0.0808,-0.0808,-0.081,-0.0813,-0.0812,-0.0823,-0.0827,-0.0829,-0.0833,-0.0837,-0.0838,-0.0852,-0.0802,-0.0866,-0.087,-0.0874,-0.0863,-0.0807,-0.0805,-0.0831,-0.0831,-0.0831,0,0,-0.0834,-0.0824,-0.0823,-0.082,-0.0818,-0.0816,-0.0812,-0.0814,-0.0829,-0.0817,-0.0845,-0.0845,-0.084,-0.0857,-0.0863,-0.0853,-0.0838,-0.0876,-0.088,-0.0866,-0.0808,-0.0806,-0.0803,-0.0832,-0.0832,-0.0832,0,0,-0.0841,-0.0848,-0.0847,-0.0848,-0.0839,-0.0833,-0.0835,-0.0835,-0.0856,-0.0875,-0.0869,-0.0877,-0.089,-0.0888,-0.0888,-0.0916,-0.0864,-0.0925,-0.0938,-0.0885,-0.0882,-0.0878,-0.0798,-0.0787,-0.0928,-0.0928,-0.0928,0,-0.0857,-0.0858,-0.0848,-0.0851,-0.0848,-0.084,-0.0844,-0.0861,-0.087,-0.0886,-0.0887,-0.0902,-0.0903,-0.0911,-0.0924,-0.0926,-0.0873,-0.092,-0.0889,-0.0884,-0.088,-0.0799,-0.0786,-0.093,-0.093,-0.093,-0.093,0,-0.0852,-0.087,-0.0868,-0.0868,-0.0869,-0.087,-0.0871,-0.089,-0.0906,-0.0919,-0.0944,-0.0941,-0.0945,-0.0955,-0.0949,-0.0933,-0.0896,-0.0899,-0.0872,-0.088,-0.0794,-0.078,-0.0934,-0.0933,-0.0932,-0.0932,0,0,-0.0833,-0.0862,-0.0861,-0.0881,-0.0881,-0.0878,-0.0899,-0.0913,-0.093,-0.0952,-0.0968,-0.0986,-0.0983,-0.0981,-0.0977,-0.0937,-0.0866,-0.0907,-0.0904,-0.0821,-0.0718,-0.0699,-0.0681,-0.086,-0.0859,-0.0857,-0.0665,0,-0.0835,-0.0856,-0.0863,-0.0884,-0.0894,-0.0902,-0.0919,-0.0937,-0.0957,-0.0972,-0.098,-0.0989,-0.0995,-0.0992,-0.096,-0.0893,-0.0833,-0.0916,-0.0727,-0.0721,-0.0699,-0.0667,-0.0852,-0.0654,-0.0651,-0.0648,-0.0646,0,-0.0814,-0.0837,-0.0864,-0.0908,-0.0909,-0.0925,-0.0943,-0.0955,-0.0976,-0.0995,-0.1004,-0.1001,-0.0968,-0.0964,-0.0839,-0.0889,-0.0801,-0.074,-0.0732,-0.0687,-0.0677,-0.0647,-0.062,-0.0622,-0.0624,-0.0626,-0.0628,0,-0.0796,-0.0833,-0.086,-0.0872,-0.0911,-0.0937,-0.0949,-0.0971,-0.0982,-0.0998,-0.0991,-0.0976,-0.0931,-0.0853,-0.0756,-0.0781,-0.0592,-0.061,-0.05,-0.0496,-0.055,-0.0556,-0.0489,-0.049,-0.049,-0.0491,-0.0491,0,-0.0789,-0.0815,-0.0863,-0.0887,-0.0921,-0.0936,-0.0971,-0.0988,-0.0992,-0.0992,-0.0993,-0.096,-0.0894,-0.0798,-0.0726,-0.0567,-0.0562,-0.0477,-0.0445,-0.0573,-0.0584,-0.0539,-0.0547,-0.0483,-0.0485,-0.0486,-0.0488,0,-0.0779,-0.0807,-0.0845,-0.0899,-0.0926,-0.0941,-0.0989,-0.1008,-0.0995,-0.0984,-0.0977,-0.0908,-0.0777,-0.0702,-0.0541,-0.0496,-0.0374,-0.0312,-0.0427,-0.0408,-0.0312,-0.0326,-0.0157,-0.0155,-0.0153,-0.0151,-0.015,0,-0.0786,-0.0805,-0.086,-0.089,-0.0931,-0.0969,-0.1009,-0.1022,-0.1034,-0.0947,-0.0934,-0.0794,-0.0749,-0.0497,-0.0427,-0.0269,-0.0259,-0.0187,-0.0278,-0.0292,-0.0277,-0.0294,-0.0309,-0.0147,-0.0146,-0.0146,-0.0145,0,-0.0806,-0.0817,-0.0851,-0.0901,-0.0954,-0.1002,-0.1054,-0.1048,-0.103,-0.1009,-0.0872,-0.0751,-0.0584,-0.0453,-0.0323,-0.0225,-0.0248,-0.0167,-0.0171,-0.0255,-0.0278,-0.0269,-0.0286,-0.0139,-0.014,-0.014,-0.0141,0,-0.082,-0.0834,-0.0868,-0.0904,-0.0968,-0.1015,-0.1044,-0.1035,-0.1018,-0.0925,-0.0866,-0.0702,-0.0605,-0.0422,-0.0315,-0.0214,-0.0195,-0.0188,-0.0191,-0.0197,-0.0297,-0.0338,-0.0165,0,0,0,0,0,-0.0829,-0.0841,-0.0878,-0.0913,-0.097,-0.1008,-0.1064,-0.1078,-0.105,-0.0954,-0.0907,-0.076,-0.054,-0.0439,-0.0328,-0.0301,-0.0202,-0.017,-0.0203,-0.0102,-0.0109,-0.0223,0,0,0,0,0,0,-0.0833,-0.0867,-0.0867,-0.091,-0.0937,-0.1004,-0.1042,-0.1032,-0.0979,-0.0923,-0.0807,-0.0728,-0.0527,-0.059,-0.0316,-0.0283,-0.029,-0.0067,-0.0065,-0.0097,-0.0104,-0.011,-0.023,0,0,0,0,0]}]]